Вернуться в каталог

CZ-6A DEB

АктивенPO
NORAD 61105·DEBRIS·🇨🇳 China

Запущен Aug 6, 2024 с Taiyuan Satellite Launch Center

Loading…

Ближайшие Пролёты (ближайшие 24 часа)

TLE

СвежийSource: Space-Track

Эпоха: Sep 14, 2026, 11:27 UTC

1 61105U 24140NX  26257.47761091  .00001093  00000-0  47152-3 0  9996
2 61105  88.9965 264.3078 0039188 263.4901  96.1828 14.23455699106250

Отслеживайте CZ-6A DEB в реальном времени с AllMySat

Download on the App Store